WZZ1008 UKBB-LHBP

Flight info

Callsign WZZ1008
Flight time N/A
Altitude 34000
Route VESEL M141 IVF M986 LONLA/N0443F340 DCT RIGSA DCT BETED
Aircraft A320/M-SDE3FGHIRWY/LB1

Departure

Time 2026-05-04 06:57
Airport Boryspil International Airport (UKBB)

Arrival

Time N/A
Airport Budapest Liszt Ferenc International Airport (LHBP)
Time Latitude Longitude Altitude Speed Heading
2026-05-04 06:33 50.35119 30.90143 408 ft 0 kts 93°
2026-05-04 06:45 50.35120 30.90126 415 ft 4 kts 91°
2026-05-04 06:46 50.35119 30.90084 410 ft 4 kts 84°
2026-05-04 06:46 50.35114 30.90043 406 ft 4 kts 67°
2026-05-04 06:46 50.35100 30.90012 408 ft 4 kts 16°
2026-05-04 06:46 50.35091 30.90010 408 ft 1 kts
2026-05-04 06:48 50.35090 30.90010 409 ft 0 kts
2026-05-04 06:51 50.35098 30.90010 408 ft 3 kts
2026-05-04 06:51 50.35136 30.90013 413 ft 7 kts
2026-05-04 06:52 50.35182 30.90042 417 ft 8 kts 36°
2026-05-04 06:52 50.35196 30.90126 413 ft 9 kts 99°
2026-05-04 06:52 50.35205 30.90229 409 ft 11 kts 51°
2026-05-04 06:52 50.35277 30.90265 412 ft 12 kts
2026-05-04 06:53 50.35367 30.90272 412 ft 14 kts
2026-05-04 06:53 50.35469 30.90280 410 ft 16 kts
2026-05-04 06:53 50.35584 30.90289 409 ft 17 kts
2026-05-04 06:53 50.35711 30.90298 413 ft 19 kts
2026-05-04 06:54 50.35848 30.90308 415 ft 21 kts
2026-05-04 06:54 50.35985 30.90318 412 ft 13 kts
2026-05-04 06:54 50.36070 30.90382 405 ft 15 kts 53°
2026-05-04 06:54 50.36078 30.90535 412 ft 14 kts 115°
2026-05-04 06:55 50.36005 30.90639 413 ft 14 kts 161°
2026-05-04 06:55 50.35976 30.90641 415 ft 0 kts 182°
2026-05-04 06:55 50.35971 30.90640 410 ft 5 kts 182°
2026-05-04 06:55 50.35713 30.90621 410 ft 72 kts 182°
2026-05-04 06:56 50.35031 30.90571 415 ft 124 kts 183°
2026-05-04 06:57 50.26253 30.89507 2951 ft 250 kts 181°
2026-05-04 06:58 50.24462 30.89452 3597 ft 262 kts 180°
2026-05-04 06:58 50.22640 30.89420 4427 ft 268 kts 180°
2026-05-04 06:58 50.20753 30.89389 5253 ft 274 kts 179°
2026-05-04 06:58 50.18829 30.89346 6108 ft 279 kts 181°
2026-05-04 06:59 50.16949 30.88535 6866 ft 288 kts 212°
2026-05-04 06:59 50.15585 30.86247 7602 ft 294 kts 245°
2026-05-04 06:59 50.14940 30.83222 8384 ft 296 kts 256°
2026-05-04 06:59 50.14289 30.80149 9173 ft 301 kts 253°
2026-05-04 07:01 50.05139 30.58732 12759 ft 376 kts 237°
2026-05-04 07:01 50.03638 30.55374 13404 ft 380 kts 237°
2026-05-04 07:02 50.02133 30.51971 14024 ft 384 kts 237°
2026-05-04 07:02 50.00616 30.48535 14615 ft 387 kts 237°
2026-05-04 07:02 49.99110 30.45125 15214 ft 389 kts 237°
2026-05-04 07:02 49.97573 30.41655 15804 ft 391 kts 237°
2026-05-04 07:03 49.96024 30.38171 16394 ft 393 kts 236°
2026-05-04 07:03 49.94466 30.34671 16978 ft 395 kts 236°
2026-05-04 07:03 49.92901 30.31162 17568 ft 397 kts 236°
2026-05-04 07:03 49.91315 30.27621 18147 ft 400 kts 236°
2026-05-04 07:04 49.89722 30.24070 18667 ft 403 kts 236°
2026-05-04 07:04 49.88113 30.20489 19168 ft 406 kts 236°
2026-05-04 07:04 49.86491 30.16887 19684 ft 409 kts 236°
2026-05-04 07:04 49.84881 30.13312 20188 ft 411 kts 236°
2026-05-04 07:05 49.83239 30.09666 20685 ft 414 kts 235°
2026-05-04 07:05 49.81585 30.06001 21172 ft 416 kts 235°
2026-05-04 07:05 49.79920 30.02319 21648 ft 419 kts 235°
2026-05-04 07:05 49.78245 29.98615 22103 ft 421 kts 235°
2026-05-04 07:06 49.74860 29.91148 23009 ft 426 kts 235°
2026-05-04 07:06 49.73147 29.87384 23454 ft 429 kts 234°
2026-05-04 07:06 49.71448 29.83660 23849 ft 432 kts 234°
2026-05-04 07:07 49.69712 29.79857 24224 ft 434 kts 234°
2026-05-04 07:08 49.62334 29.49320 26687 ft 448 kts 259°
2026-05-04 07:09 49.61703 29.44603 27054 ft 450 kts 259°
2026-05-04 07:09 49.61068 29.39874 27391 ft 453 kts 259°
2026-05-04 07:09 49.60423 29.35102 27747 ft 455 kts 259°
2026-05-04 07:09 49.59774 29.30329 28100 ft 457 kts 259°
2026-05-04 07:10 49.59121 29.25524 28448 ft 459 kts 259°
2026-05-04 07:10 49.58467 29.20702 28854 ft 459 kts 259°
2026-05-04 07:12 49.53888 28.87370 31997 ft 452 kts 258°
2026-05-04 07:12 49.53229 28.82645 32414 ft 451 kts 258°
2026-05-04 07:12 49.52570 28.77940 32820 ft 450 kts 258°
2026-05-04 07:12 49.51907 28.73232 33236 ft 450 kts 258°
2026-05-04 07:13 49.51241 28.68534 33662 ft 449 kts 258°
2026-05-04 07:13 49.50586 28.63904 34010 ft 449 kts 258°
2026-05-04 07:13 49.49919 28.59195 34082 ft 454 kts 258°
2026-05-04 07:14 49.46486 28.35185 34086 ft 461 kts 258°
2026-05-04 07:15 49.45106 28.25643 34089 ft 460 kts 258°
2026-05-04 07:15 49.43714 28.16044 34088 ft 461 kts 258°
2026-05-04 07:16 49.42302 28.06438 34089 ft 461 kts 257°
2026-05-04 07:16 49.40880 27.96841 34088 ft 461 kts 257°
2026-05-04 07:17 49.39462 27.87316 34089 ft 461 kts 257°
2026-05-04 07:17 49.38053 27.77722 34079 ft 461 kts 258°
2026-05-04 07:18 49.36659 27.68125 34091 ft 461 kts 258°
2026-05-04 07:18 49.35257 27.58538 34110 ft 461 kts 258°
2026-05-04 07:19 49.33846 27.48955 34115 ft 460 kts 258°
2026-05-04 07:19 49.32440 27.39444 34098 ft 460 kts 257°
2026-05-04 07:20 49.30999 27.29883 34102 ft 460 kts 257°
2026-05-04 07:20 49.29549 27.20330 34103 ft 460 kts 257°
2026-05-04 07:22 49.23718 26.82225 34102 ft 461 kts 257°
2026-05-04 07:23 49.22235 26.72685 34112 ft 461 kts 257°
2026-05-04 07:23 49.20755 26.63217 34115 ft 461 kts 257°
2026-05-04 07:24 49.19259 26.53684 34101 ft 461 kts 257°
2026-05-04 07:24 49.17749 26.44154 34118 ft 461 kts 257°
2026-05-04 07:26 49.11642 26.06159 34117 ft 461 kts 257°
2026-05-04 07:27 49.10092 25.96664 34100 ft 461 kts 257°
2026-05-04 07:27 49.08544 25.87241 34107 ft 461 kts 257°
2026-05-04 07:28 49.06982 25.77767 34114 ft 461 kts 257°
2026-05-04 07:28 49.05407 25.68285 34110 ft 461 kts 257°
2026-05-04 07:29 49.03823 25.58805 34113 ft 462 kts 257°
2026-05-04 07:29 49.02236 25.49390 34115 ft 462 kts 257°
2026-05-04 07:30 49.00641 25.39911 34113 ft 462 kts 257°
2026-05-04 07:30 48.99038 25.30439 34106 ft 462 kts 257°
2026-05-04 07:31 48.97702 25.22578 34112 ft 462 kts 257°
2026-05-04 07:33 48.90888 24.83219 34112 ft 463 kts 256°
2026-05-04 07:33 48.89507 24.75360 34124 ft 463 kts 256°
2026-05-04 07:34 48.87498 24.64413 34130 ft 463 kts 254°
2026-05-04 07:34 48.85458 24.55127 34134 ft 464 kts 252°
2026-05-04 07:35 48.83680 24.47447 34124 ft 464 kts 252°
2026-05-04 07:35 48.81581 24.38201 34128 ft 464 kts 252°
2026-05-04 07:36 48.79523 24.28924 34134 ft 464 kts 253°
2026-05-04 07:38 48.70915 23.90520 34138 ft 463 kts 253°
2026-05-04 07:38 48.69159 23.82792 34141 ft 463 kts 253°
2026-05-04 07:39 48.67074 23.73645 34146 ft 463 kts 252°
2026-05-04 07:39 48.64960 23.64430 34151 ft 463 kts 252°
2026-05-04 07:40 48.62778 23.55265 34162 ft 463 kts 251°
2026-05-04 07:40 48.60509 23.46169 34168 ft 462 kts 251°
2026-05-04 07:41 48.58233 23.37157 34171 ft 462 kts 251°
2026-05-04 07:41 48.55966 23.28082 34172 ft 462 kts 251°
2026-05-04 07:42 48.53720 23.19021 34167 ft 461 kts 251°
2026-05-04 07:42 48.51612 23.09892 34171 ft 460 kts 253°
2026-05-04 07:43 48.49671 23.00759 34174 ft 460 kts 254°
2026-05-04 07:43 48.47704 22.91593 34180 ft 459 kts 253°
2026-05-04 07:44 48.45684 22.82472 34181 ft 459 kts 253°
2026-05-04 07:44 48.43617 22.73399 34179 ft 458 kts 252°
2026-05-04 07:45 48.41519 22.64335 34180 ft 458 kts 252°
2026-05-04 07:45 48.39439 22.55347 34174 ft 458 kts 253°
2026-05-04 07:46 48.37336 22.46303 34172 ft 458 kts 252°
2026-05-04 07:46 48.35225 22.37272 34185 ft 457 kts 252°
2026-05-04 07:47 48.33578 22.28112 34182 ft 453 kts 263°
2026-05-04 07:49 48.29614 21.90815 34173 ft 452 kts 263°
2026-05-04 07:49 48.28608 21.81586 34182 ft 451 kts 263°
2026-05-04 07:50 48.27585 21.72296 34183 ft 451 kts 263°
2026-05-04 07:50 48.26556 21.63016 34185 ft 450 kts 263°
2026-05-04 07:51 48.25524 21.53744 34174 ft 450 kts 263°
2026-05-04 07:51 48.24489 21.44536 34175 ft 451 kts 263°
2026-05-04 07:52 48.23444 21.35278 34170 ft 451 kts 263°
2026-05-04 07:52 48.22389 21.26012 34175 ft 451 kts 263°
2026-05-04 07:54 48.18103 20.89099 32192 ft 450 kts 263°
2026-05-04 07:55 48.17559 20.84486 31599 ft 448 kts 262°
2026-05-04 07:55 48.17016 20.79913 31075 ft 444 kts 262°
2026-05-04 07:55 48.16475 20.75378 30557 ft 441 kts 262°
2026-05-04 07:55 48.15884 20.70891 30017 ft 438 kts 261°
2026-05-04 07:56 48.15222 20.66459 29419 ft 435 kts 259°
2026-05-04 07:56 48.14517 20.62076 28841 ft 431 kts 258°
2026-05-04 07:56 48.13810 20.57803 28285 ft 428 kts 258°
2026-05-04 07:56 48.13098 20.53496 27733 ft 425 kts 258°
2026-05-04 07:57 48.12402 20.49220 27188 ft 421 kts 258°
2026-05-04 07:57 48.11727 20.44972 26642 ft 418 kts 258°
2026-05-04 07:57 48.11068 20.40756 26135 ft 414 kts 258°
2026-05-04 07:57 48.10418 20.36577 25657 ft 411 kts 258°
2026-05-04 07:58 48.09772 20.32431 25163 ft 408 kts 258°
2026-05-04 07:58 48.09126 20.28315 24680 ft 405 kts 258°
2026-05-04 07:58 48.08254 20.24317 24217 ft 404 kts 248°
2026-05-04 07:58 48.06944 20.20609 23764 ft 403 kts 238°
2026-05-04 07:59 48.05332 20.17271 23253 ft 401 kts 234°
2026-05-04 07:59 48.03670 20.13934 22753 ft 399 kts 234°
2026-05-04 07:59 48.02024 20.10618 22257 ft 396 kts 234°
2026-05-04 07:59 48.00393 20.07324 21766 ft 393 kts 234°
2026-05-04 08:00 47.98770 20.04052 21269 ft 391 kts 234°
2026-05-04 08:00 47.97158 20.00802 20780 ft 388 kts 234°
2026-05-04 08:00 47.95559 19.97582 20293 ft 386 kts 234°
2026-05-04 08:02 47.84626 19.75709 16936 ft 365 kts 233°
2026-05-04 08:02 47.83067 19.72765 16488 ft 361 kts 227°
2026-05-04 08:02 47.81268 19.70180 16006 ft 358 kts 222°
2026-05-04 08:03 47.79443 19.67672 15490 ft 357 kts 222°
2026-05-04 08:03 47.77627 19.65180 15048 ft 354 kts 221°
2026-05-04 08:03 47.75850 19.62743 14603 ft 351 kts 222°
2026-05-04 08:03 47.74063 19.60298 14165 ft 348 kts 221°
2026-05-04 08:04 47.72289 19.57876 13718 ft 345 kts 221°
2026-05-04 08:04 47.70527 19.55472 13238 ft 343 kts 222°
2026-05-04 08:04 47.68776 19.53085 12754 ft 340 kts 221°
2026-05-04 08:04 47.67039 19.50715 12319 ft 338 kts 221°
2026-05-04 08:05 47.65314 19.48361 11865 ft 336 kts 221°
2026-05-04 08:05 47.63599 19.46021 11434 ft 334 kts 220°
2026-05-04 08:05 47.61899 19.43700 11132 ft 328 kts 221°
2026-05-04 08:05 47.60250 19.41449 11002 ft 316 kts 221°
2026-05-04 08:06 47.58658 19.39282 10871 ft 307 kts 221°
2026-05-04 08:06 47.57126 19.37202 10748 ft 298 kts 221°
2026-05-04 08:06 47.55625 19.35158 10624 ft 290 kts 221°
2026-05-04 08:06 47.54461 19.32784 10501 ft 284 kts 248°
2026-05-04 08:08 47.61287 19.16878 8590 ft 271 kts 311°
2026-05-04 08:08 47.62556 19.14823 8329 ft 270 kts 310°
2026-05-04 08:10 47.61921 18.98985 5634 ft 214 kts 218°
2026-05-04 08:11 47.60612 18.98099 5261 ft 208 kts 182°
2026-05-04 08:11 47.58366 19.00445 4652 ft 211 kts 134°
2026-05-04 08:11 47.57348 19.02050 4187 ft 220 kts 141°
2026-05-04 08:12 47.56235 19.03655 3792 ft 225 kts 139°
2026-05-04 08:12 47.55159 19.05355 3457 ft 226 kts 137°
2026-05-04 08:12 47.54116 19.07054 3158 ft 219 kts 137°
2026-05-04 08:12 47.53108 19.08698 2868 ft 213 kts 137°
2026-05-04 08:13 47.52138 19.10277 2595 ft 207 kts 137°
2026-05-04 08:13 47.51172 19.11847 2325 ft 205 kts 136°
2026-05-04 08:13 47.50234 19.13374 2053 ft 195 kts 137°
2026-05-04 08:13 47.49358 19.14799 1803 ft 178 kts 136°
2026-05-04 08:14 47.48573 19.16075 1583 ft 156 kts 136°
2026-05-04 08:14 47.47880 19.17200 1366 ft 143 kts 136°
2026-05-04 08:14 47.47218 19.18271 1171 ft 140 kts 136°
2026-05-04 08:16 47.42152 19.24081 1970 ft 153 kts 214°
2026-05-04 08:16 47.41638 19.22696 2516 ft 158 kts 261°
2026-05-04 08:16 47.41970 19.21084 2936 ft 184 kts 300°
2026-05-04 08:17 47.42885 19.19556 3010 ft 207 kts 311°
2026-05-04 08:17 47.43912 19.18009 2997 ft 222 kts 309°
2026-05-04 08:17 47.44987 19.16316 3006 ft 228 kts 309°
2026-05-04 08:17 47.46119 19.14521 3013 ft 247 kts 309°
2026-05-04 08:19 47.54639 19.05383 2975 ft 219 kts 49°
2026-05-04 08:19 47.55231 19.07305 3031 ft 201 kts 96°
2026-05-04 08:20 47.54768 19.09071 2961 ft 178 kts 144°
2026-05-04 08:20 47.53685 19.09722 2803 ft 168 kts 173°
2026-05-04 08:20 47.52579 19.10326 2617 ft 173 kts 153°
2026-05-04 08:20 47.51614 19.11395 2405 ft 174 kts 143°
2026-05-04 08:21 47.50744 19.12631 2171 ft 174 kts 139°
2026-05-04 08:21 47.49927 19.13902 1963 ft 164 kts 137°
2026-05-04 08:21 47.49175 19.15105 1750 ft 161 kts 136°
2026-05-04 08:21 47.48433 19.16302 1522 ft 151 kts 136°
2026-05-04 08:22 47.47752 19.17408 1316 ft 142 kts 136°
2026-05-04 08:22 47.47091 19.18474 1112 ft 140 kts 136°